Oklahoma City Wiley Post, OK

3:49 PM CDT on September 20, 2017 (GMT -0500)
Wiley Post

Weather History for KPWA - March, 2013

Change the Weather History Date:

Sunday, March 3, 2013

  Actual Average Record
Temperature  
Mean Temperature 53 °F -  
Max Temperature 71 °F 58 °F 84 °F (1955)
Min Temperature 35 °F 34 °F 3 °F (1960)
Degree Days  
Heating Degree Days 12    
Growing Degree Days 3 (Base 50)    
Moisture  
Dew Point 28 °F    
Average Humidity 41    
Maximum Humidity 65    
Minimum Humidity 23    
Precipitation  
Precipitation 0.00 in - - ()
Sea Level Pressure  
Sea Level Pressure 29.87 in    
Wind  
Wind Speed 17 mph (South)    
Max Wind Speed 31 mph    
Max Gust Speed 41 mph    
Visibility 10 miles    
Events      
Averages and records for this station are not official NWS values.
T = Trace of Precipitation, MM = Missing Value Source: NWS Daily Summary

Daily Weather History Graph

Daily Weather History Graph

Search for Another Location

Airport or City:

Trip Planner

Search our weather history database for the weather conditions in past years. The results will help you decide how hot, cold, wet, or windy it might be!

Date:

Astronomy

Mar. 03, 2013 Rise Set
Actual Time 6:57 AM CST 6:27 PM CST
Civil Twilight 6:31 AM CST 6:53 PM CST
Nautical Twilight 6:02 AM CST 7:23 PM CST
Astronomical Twilight 5:32 AM CST 7:52 PM CST
Moon No Moon Rise 10:27 AM CST (3/3)
Length of Visible Light 12h 21m
Length of Day
11h 30m
Waning Gibbous, 63% of the Moon is Illuminated
Mar 3
Waning Gibbous
Mar 4
Last Quarter
Mar 11
New
Mar 19
First Quarter
Mar 27
Full

Hourly Weather History & Observations

Time (CST) Temp. Windchill Dew Point Humidity Pressure Visibility Wind Dir Wind Speed Gust Speed Precip Events Conditions
12:53 AM 37.9 °F 30.0 °F 25.0 °F 60% 30.15 in 10.0 mi South 12.7 mph - N/A   Clear
1:53 AM 39.2 °F 30.5 °F 24.8 °F 56% 30.13 in 10.0 mi South 16.1 mph - N/A   Clear
2:53 AM 37.9 °F 30.5 °F 24.1 °F 57% 30.12 in 10.0 mi South 11.5 mph - N/A   Clear
3:53 AM 37.0 °F 29.3 °F 25.0 °F 62% 30.10 in 10.0 mi South 11.5 mph - N/A   Clear
4:53 AM 37.9 °F 28.9 °F 24.1 °F 57% 30.08 in 10.0 mi South 16.1 mph - N/A   Clear
5:53 AM 35.6 °F 27.1 °F 24.8 °F 65% 30.06 in 10.0 mi South 12.7 mph - N/A   Clear
6:53 AM 37.0 °F 27.7 °F 24.1 °F 59% 30.05 in 10.0 mi South 16.1 mph - N/A   Clear
7:53 AM 37.9 °F 28.9 °F 24.1 °F 57% 30.04 in 10.0 mi South 16.1 mph - N/A   Clear
8:53 AM 44.1 °F 36.8 °F 25.0 °F 47% 30.02 in 10.0 mi South 16.1 mph - N/A   Clear
9:53 AM 51.1 °F - 27.0 °F 39% 29.99 in 10.0 mi South 20.7 mph - N/A   Clear
10:53 AM 55.9 °F - 28.9 °F 36% 29.97 in 10.0 mi SSE 16.1 mph - N/A   Clear
11:53 AM 62.1 °F - 30.9 °F 31% 29.92 in 10.0 mi South 17.3 mph - N/A   Clear
12:53 PM 63.0 °F - 28.9 °F 28% 29.86 in 10.0 mi SSW 21.9 mph 27.6 mph N/A   Clear
1:53 PM 69.1 °F - 30.9 °F 24% 29.81 in 10.0 mi South 21.9 mph 29.9 mph N/A   Clear
2:53 PM 70.0 °F - 30.0 °F 23% 29.76 in 10.0 mi South 24.2 mph 32.2 mph N/A   Clear
3:53 PM 71.1 °F - 30.9 °F 23% 29.73 in 10.0 mi South 24.2 mph 33.4 mph N/A   Clear
4:53 PM 68.0 °F - 32.0 °F 26% 29.70 in 10.0 mi South 21.9 mph 27.6 mph N/A   Clear
5:53 PM 64.9 °F - 32.0 °F 29% 29.70 in 10.0 mi SSE 18.4 mph 28.8 mph N/A   Clear
6:53 PM 62.1 °F - 32.0 °F 32% 29.68 in 10.0 mi SSE 25.3 mph 33.4 mph N/A   Clear
7:53 PM 61.0 °F - 30.9 °F 32% 29.66 in 10.0 mi SSE 25.3 mph 35.7 mph N/A   Clear
8:53 PM 60.1 °F - 30.0 °F 32% 29.64 in 10.0 mi SSE 31.1 mph 41.4 mph N/A   Clear
9:53 PM 59.0 °F - 30.9 °F 35% 29.62 in 10.0 mi SSE 21.9 mph 31.1 mph N/A   Clear
10:53 PM 57.0 °F - 32.0 °F 39% 29.59 in 10.0 mi SSE 23.0 mph 34.5 mph N/A   Clear
11:53 PM 55.9 °F - 32.0 °F 40% 29.55 in 10.0 mi South 24.2 mph 32.2 mph N/A   Clear